Year,Month,Day,Hour,Minute,Value (Times are PST for windgust in km/hr)
2020,06,07,00,05,9.60
2020,06,07,00,06,9.60
2020,06,07,00,07,3.20
2020,06,07,00,08,9.60
2020,06,07,00,09,6.40
2020,06,07,00,10,9.60
2020,06,07,00,11,6.40
2020,06,07,00,12,3.20
2020,06,07,00,13,6.40
2020,06,07,00,14,4.80
2020,06,07,00,15,3.20
2020,06,07,00,17,3.20
2020,06,07,00,19,4.80
2020,06,07,00,20,3.20
2020,06,07,00,22,1.60
2020,06,07,00,23,3.20
2020,06,07,00,24,3.20
2020,06,07,00,27,4.80
2020,06,07,00,28,6.40
2020,06,07,00,30,1.60
2020,06,07,00,31,3.20
2020,06,07,00,37,3.20
2020,06,07,00,41,1.60
2020,06,07,00,42,4.80
2020,06,07,00,43,6.40
2020,06,07,00,44,1.60
2020,06,07,00,45,1.60
2020,06,07,00,48,3.20
2020,06,07,00,49,3.20
2020,06,07,00,50,6.40
2020,06,07,00,51,4.80
2020,06,07,00,52,4.80
2020,06,07,00,53,9.60
2020,06,07,00,54,6.40
2020,06,07,00,55,4.80
2020,06,07,00,56,4.80
2020,06,07,00,57,6.40
2020,06,07,00,59,3.20
2020,06,07,01,02,3.20
2020,06,07,01,03,1.60
2020,06,07,01,04,3.20
2020,06,07,01,09,3.20
2020,06,07,01,10,8.10
2020,06,07,01,12,4.80
2020,06,07,01,15,9.60
2020,06,07,01,16,4.80
2020,06,07,01,17,3.20
2020,06,07,01,18,4.80
2020,06,07,01,19,1.60
2020,06,07,01,20,3.20
2020,06,07,01,24,3.20
2020,06,07,01,26,1.60
2020,06,07,01,28,3.20
2020,06,07,01,29,1.60
2020,06,07,01,30,4.80
2020,06,07,01,31,3.20
2020,06,07,01,32,1.60
2020,06,07,01,33,1.60
2020,06,07,01,35,3.20
2020,06,07,01,37,3.20
2020,06,07,01,41,1.60
2020,06,07,01,42,3.20
2020,06,07,01,43,3.20
2020,06,07,01,44,6.40
2020,06,07,01,45,9.60
2020,06,07,01,46,3.20
2020,06,07,01,47,1.60
2020,06,07,01,48,6.40
2020,06,07,01,49,1.60
2020,06,07,01,51,6.40
2020,06,07,01,52,9.60
2020,06,07,01,54,3.20
2020,06,07,01,55,11.30
2020,06,07,01,56,3.20
2020,06,07,01,57,1.60
2020,06,07,01,58,6.40
2020,06,07,01,59,1.60
2020,06,07,02,01,3.20
2020,06,07,02,02,6.40
2020,06,07,02,03,4.80
2020,06,07,02,05,1.60
2020,06,07,02,06,1.60
2020,06,07,02,07,1.60
2020,06,07,02,08,1.60
2020,06,07,02,09,4.80
2020,06,07,02,12,4.80
2020,06,07,02,15,1.60
2020,06,07,02,16,4.80
2020,06,07,02,17,4.80
2020,06,07,02,18,6.40
2020,06,07,02,19,8.10
2020,06,07,02,20,3.20
2020,06,07,02,21,4.80
2020,06,07,02,22,8.10
2020,06,07,02,23,8.10
2020,06,07,02,24,3.20
2020,06,07,02,26,1.60
2020,06,07,02,27,4.80
2020,06,07,02,28,6.40
2020,06,07,02,29,6.40
2020,06,07,02,30,4.80
2020,06,07,02,32,3.20
2020,06,07,02,33,1.60
2020,06,07,02,34,3.20
2020,06,07,02,35,1.60
2020,06,07,02,36,3.20
2020,06,07,02,37,3.20
2020,06,07,02,38,8.10
2020,06,07,02,39,1.60
2020,06,07,02,40,4.80
2020,06,07,02,41,8.10
2020,06,07,02,42,8.10
2020,06,07,02,43,6.40
2020,06,07,02,44,6.40
2020,06,07,02,45,3.20
2020,06,07,02,46,8.10
2020,06,07,02,47,3.20
2020,06,07,02,48,6.40
2020,06,07,02,49,6.40
2020,06,07,02,50,6.40
2020,06,07,02,51,11.30
2020,06,07,02,52,6.40
2020,06,07,02,54,8.10
2020,06,07,02,55,3.20
2020,06,07,02,56,3.20
2020,06,07,02,57,8.10
2020,06,07,02,58,14.50
2020,06,07,02,59,11.30
2020,06,07,03,00,8.10
2020,06,07,03,01,11.30
2020,06,07,03,02,11.30
2020,06,07,03,03,11.30
2020,06,07,03,04,11.30
2020,06,07,03,05,16.10
2020,06,07,03,06,8.10
2020,06,07,03,07,9.60
2020,06,07,03,08,4.80
2020,06,07,03,09,12.90
2020,06,07,03,10,14.50
2020,06,07,03,11,6.40
2020,06,07,03,12,8.10
2020,06,07,03,13,9.60
2020,06,07,03,14,9.60
2020,06,07,03,15,6.40
2020,06,07,03,16,16.10
2020,06,07,03,17,8.10
2020,06,07,03,18,8.10
2020,06,07,03,19,8.10
2020,06,07,03,20,4.80
2020,06,07,03,21,6.40
2020,06,07,03,22,6.40
2020,06,07,03,24,1.60
2020,06,07,03,25,12.90
2020,06,07,03,26,9.60
2020,06,07,03,27,3.20
2020,06,07,03,28,8.10
2020,06,07,03,29,8.10
2020,06,07,03,30,6.40
2020,06,07,03,31,6.40
2020,06,07,03,32,3.20
2020,06,07,03,33,4.80
2020,06,07,03,34,6.40
2020,06,07,03,35,9.60
2020,06,07,03,36,8.10
2020,06,07,03,37,8.10
2020,06,07,03,38,8.10
2020,06,07,03,39,8.10
2020,06,07,03,40,1.60
2020,06,07,03,41,3.20
2020,06,07,03,42,8.10
2020,06,07,03,43,3.20
2020,06,07,03,44,4.80
2020,06,07,03,45,8.10
2020,06,07,03,46,11.30
2020,06,07,03,47,6.40
2020,06,07,03,48,3.20
2020,06,07,03,49,8.10
2020,06,07,03,50,6.40
2020,06,07,03,51,11.30
2020,06,07,03,52,9.60
2020,06,07,03,53,3.20
2020,06,07,03,54,9.60
2020,06,07,03,55,9.60
2020,06,07,03,56,6.40
2020,06,07,03,57,3.20
2020,06,07,03,58,4.80
2020,06,07,03,59,6.40
2020,06,07,04,00,11.30
2020,06,07,04,01,8.10
2020,06,07,04,02,6.40
2020,06,07,04,03,6.40
2020,06,07,04,04,6.40
2020,06,07,04,05,9.60
2020,06,07,04,06,8.10
2020,06,07,04,07,8.10
2020,06,07,04,08,6.40
2020,06,07,04,09,14.50
2020,06,07,04,10,9.60
2020,06,07,04,11,9.60
2020,06,07,04,12,6.40
2020,06,07,04,13,8.10
2020,06,07,04,14,4.80
2020,06,07,04,15,6.40
2020,06,07,04,16,9.60
2020,06,07,04,17,4.80
2020,06,07,04,18,3.20
2020,06,07,04,19,4.80
2020,06,07,04,20,6.40
2020,06,07,04,21,6.40
2020,06,07,04,22,6.40
2020,06,07,04,23,3.20
2020,06,07,04,24,9.60
2020,06,07,04,25,9.60
2020,06,07,04,26,11.30
2020,06,07,04,27,4.80
2020,06,07,04,28,14.50
2020,06,07,04,29,11.30
2020,06,07,04,30,8.10
2020,06,07,04,31,9.60
2020,06,07,04,32,8.10
2020,06,07,04,33,8.10
2020,06,07,04,34,16.10
2020,06,07,04,35,9.60
2020,06,07,04,36,6.40
2020,06,07,04,37,12.90
2020,06,07,04,38,16.10
2020,06,07,04,39,12.90
2020,06,07,04,40,9.60
2020,06,07,04,41,11.30
2020,06,07,04,42,11.30
2020,06,07,04,43,17.70
2020,06,07,04,44,8.10
2020,06,07,04,45,12.90
2020,06,07,04,46,11.30
2020,06,07,04,47,9.60
2020,06,07,04,48,9.60
2020,06,07,04,49,9.60
2020,06,07,04,50,6.40
2020,06,07,04,51,6.40
2020,06,07,04,52,6.40
2020,06,07,04,53,6.40
2020,06,07,04,54,11.30
2020,06,07,04,55,8.10
2020,06,07,04,56,4.80
2020,06,07,04,58,8.10
2020,06,07,04,59,6.40
2020,06,07,05,00,8.10
2020,06,07,05,01,9.60
2020,06,07,05,02,11.30
2020,06,07,05,03,9.60
2020,06,07,05,04,4.80
2020,06,07,05,05,8.10
2020,06,07,05,06,6.40
2020,06,07,05,07,9.60
2020,06,07,05,08,3.20
2020,06,07,05,09,9.60
2020,06,07,05,10,4.80
2020,06,07,05,11,8.10
2020,06,07,05,12,8.10
2020,06,07,05,13,3.20
2020,06,07,05,14,6.40
2020,06,07,05,15,8.10
2020,06,07,05,16,6.40
2020,06,07,05,17,8.10
2020,06,07,05,18,4.80
2020,06,07,05,19,8.10
2020,06,07,05,20,11.30
2020,06,07,05,21,8.10
2020,06,07,05,22,9.60
2020,06,07,05,23,4.80
2020,06,07,05,24,1.60
2020,06,07,05,26,4.80
2020,06,07,05,27,3.20
2020,06,07,05,28,4.80
2020,06,07,05,29,4.80
2020,06,07,05,30,4.80
2020,06,07,05,31,8.10
2020,06,07,05,32,8.10
2020,06,07,05,33,16.10
2020,06,07,05,34,4.80
2020,06,07,05,35,3.20
2020,06,07,05,36,9.60
2020,06,07,05,37,8.10
2020,06,07,05,38,6.40
2020,06,07,05,39,8.10
2020,06,07,05,40,9.60
2020,06,07,05,41,9.60
2020,06,07,05,42,6.40
2020,06,07,05,43,16.10
2020,06,07,05,44,11.30
2020,06,07,05,45,11.30
2020,06,07,05,46,9.60
2020,06,07,05,47,8.10
2020,06,07,05,48,4.80
2020,06,07,05,50,8.10
2020,06,07,05,51,9.60
2020,06,07,05,52,11.30
2020,06,07,05,53,4.80
2020,06,07,05,54,8.10
2020,06,07,05,55,6.40
2020,06,07,05,56,16.10
2020,06,07,05,57,3.20
2020,06,07,05,58,4.80
2020,06,07,05,59,3.20
2020,06,07,06,00,14.50
2020,06,07,06,01,6.40
2020,06,07,06,02,16.10
2020,06,07,06,03,6.40
2020,06,07,06,04,3.20
2020,06,07,06,05,4.80
2020,06,07,06,06,3.20
2020,06,07,06,07,8.10
2020,06,07,06,08,8.10
2020,06,07,06,09,8.10
2020,06,07,06,10,8.10
2020,06,07,06,11,8.10
2020,06,07,06,12,6.40
2020,06,07,06,13,4.80
2020,06,07,06,14,8.10
2020,06,07,06,15,8.10
2020,06,07,06,16,9.60
2020,06,07,06,17,6.40
2020,06,07,06,18,3.20
2020,06,07,06,19,11.30
2020,06,07,06,20,3.20
2020,06,07,06,21,8.10
2020,06,07,06,22,9.60
2020,06,07,06,23,8.10
2020,06,07,06,24,8.10
2020,06,07,06,25,8.10
2020,06,07,06,26,6.40
2020,06,07,06,27,4.80
2020,06,07,06,28,8.10
2020,06,07,06,29,6.40
2020,06,07,06,30,6.40
2020,06,07,06,31,4.80
2020,06,07,06,32,3.20
2020,06,07,06,33,8.10
2020,06,07,06,34,8.10
2020,06,07,06,35,1.60
2020,06,07,06,36,4.80
2020,06,07,06,37,8.10
2020,06,07,06,38,4.80
2020,06,07,06,39,1.60
2020,06,07,06,40,8.10
2020,06,07,06,41,4.80
2020,06,07,06,42,8.10
2020,06,07,06,43,4.80
2020,06,07,06,44,6.40
2020,06,07,06,45,6.40
2020,06,07,06,46,14.50
2020,06,07,06,47,8.10
2020,06,07,06,48,9.60
2020,06,07,06,49,4.80
2020,06,07,06,50,8.10
2020,06,07,06,51,16.10
2020,06,07,06,52,14.50
2020,06,07,06,53,6.40
2020,06,07,06,54,8.10
2020,06,07,06,55,9.60
2020,06,07,06,56,14.50
2020,06,07,06,57,6.40
2020,06,07,06,58,9.60
2020,06,07,06,59,3.20
2020,06,07,07,00,1.60
2020,06,07,07,01,9.60
2020,06,07,07,02,9.60
2020,06,07,07,03,6.40
2020,06,07,07,04,4.80
2020,06,07,07,05,6.40
2020,06,07,07,06,11.30
2020,06,07,07,07,9.60
2020,06,07,07,08,8.10
2020,06,07,07,09,8.10
2020,06,07,07,10,8.10
2020,06,07,07,11,3.20
2020,06,07,07,13,3.20
2020,06,07,07,14,8.10
2020,06,07,07,15,6.40
2020,06,07,07,16,9.60
2020,06,07,07,17,9.60
2020,06,07,07,18,4.80
2020,06,07,07,19,4.80
2020,06,07,07,20,4.80
2020,06,07,07,21,4.80
2020,06,07,07,23,8.10
2020,06,07,07,24,3.20
2020,06,07,07,25,6.40
2020,06,07,07,26,6.40
2020,06,07,07,27,8.10
2020,06,07,07,28,8.10
2020,06,07,07,30,9.60
2020,06,07,07,31,3.20
2020,06,07,07,32,4.80
2020,06,07,07,33,8.10
2020,06,07,07,34,3.20
2020,06,07,07,35,3.20
2020,06,07,07,36,6.40
2020,06,07,07,37,6.40
2020,06,07,07,38,6.40
2020,06,07,07,39,6.40
2020,06,07,07,40,9.60
2020,06,07,07,41,4.80
2020,06,07,07,42,4.80
2020,06,07,07,43,6.40
2020,06,07,07,44,8.10
2020,06,07,07,45,8.10
2020,06,07,07,46,8.10
2020,06,07,07,47,16.10
2020,06,07,07,48,9.60
2020,06,07,07,49,19.30
2020,06,07,07,50,12.90
2020,06,07,07,51,9.60
2020,06,07,07,52,9.60
2020,06,07,07,53,9.60
2020,06,07,07,54,6.40
2020,06,07,07,55,3.20
2020,06,07,07,56,6.40
2020,06,07,07,57,9.60
2020,06,07,07,58,8.10
2020,06,07,07,59,4.80
2020,06,07,08,00,11.30
2020,06,07,08,01,4.80
2020,06,07,08,02,3.20
2020,06,07,08,03,4.80
2020,06,07,08,04,3.20
2020,06,07,08,05,3.20
2020,06,07,08,06,1.60
2020,06,07,08,07,8.10
2020,06,07,08,08,4.80
2020,06,07,08,09,6.40
2020,06,07,08,10,9.60
2020,06,07,08,11,8.10
2020,06,07,08,12,14.50
2020,06,07,08,13,11.30
2020,06,07,08,14,9.60
2020,06,07,08,15,8.10
2020,06,07,08,16,17.70
2020,06,07,08,17,17.70
2020,06,07,08,18,8.10
2020,06,07,08,19,11.30
2020,06,07,08,20,8.10
2020,06,07,08,21,14.50
2020,06,07,08,22,9.60
2020,06,07,08,23,11.30
2020,06,07,08,24,16.10
2020,06,07,08,25,9.60
2020,06,07,08,26,9.60
2020,06,07,08,27,16.10
2020,06,07,08,28,12.90
2020,06,07,08,29,16.10
2020,06,07,08,30,8.10
2020,06,07,08,31,8.10
2020,06,07,08,32,11.30
2020,06,07,08,33,4.80
2020,06,07,08,34,14.50
2020,06,07,08,35,9.60
2020,06,07,08,36,20.90
2020,06,07,08,37,17.70
2020,06,07,08,38,11.30
2020,06,07,08,39,17.70
2020,06,07,08,40,17.70
2020,06,07,08,41,14.50
2020,06,07,08,42,16.10
2020,06,07,08,43,12.90
2020,06,07,08,44,11.30
2020,06,07,08,45,4.80
2020,06,07,08,46,8.10
2020,06,07,08,47,8.10
2020,06,07,08,48,6.40
2020,06,07,08,49,3.20
2020,06,07,08,50,4.80
2020,06,07,08,51,8.10
2020,06,07,08,52,6.40
2020,06,07,08,53,8.10
2020,06,07,08,54,4.80
2020,06,07,08,55,16.10
2020,06,07,08,56,9.60
2020,06,07,08,57,11.30
2020,06,07,08,58,14.50
2020,06,07,08,59,16.10
2020,06,07,09,00,9.60
2020,06,07,09,01,6.40
2020,06,07,09,02,6.40
2020,06,07,09,03,8.10
2020,06,07,09,04,6.40
2020,06,07,09,05,3.20
2020,06,07,09,06,4.80
2020,06,07,09,07,8.10
2020,06,07,09,08,9.60
2020,06,07,09,09,6.40
2020,06,07,09,10,6.40
2020,06,07,09,11,8.10
2020,06,07,09,12,9.60
2020,06,07,09,13,4.80
2020,06,07,09,14,4.80
2020,06,07,09,15,4.80
2020,06,07,09,16,6.40
2020,06,07,09,17,6.40
2020,06,07,09,18,4.80
2020,06,07,09,19,6.40
2020,06,07,09,20,9.60
2020,06,07,09,21,3.20
2020,06,07,09,22,11.30
2020,06,07,09,23,12.90
2020,06,07,09,24,8.10
2020,06,07,09,25,8.10
2020,06,07,09,26,9.60
2020,06,07,09,27,3.20
2020,06,07,09,28,6.40
2020,06,07,09,29,8.10
2020,06,07,09,30,6.40
2020,06,07,09,31,9.60
2020,06,07,09,32,4.80
2020,06,07,09,33,4.80
2020,06,07,09,34,14.50
2020,06,07,09,35,8.10
2020,06,07,09,36,4.80
2020,06,07,09,37,8.10
2020,06,07,09,38,14.50
2020,06,07,09,39,9.60
2020,06,07,09,40,3.20
2020,06,07,09,41,6.40
2020,06,07,09,42,11.30
2020,06,07,09,43,6.40
2020,06,07,09,44,3.20
2020,06,07,09,45,17.70
2020,06,07,09,46,16.10
2020,06,07,09,47,16.10
2020,06,07,09,48,16.10
2020,06,07,09,49,12.90
2020,06,07,09,50,8.10
2020,06,07,09,51,14.50
2020,06,07,09,52,6.40
2020,06,07,09,53,12.90
2020,06,07,09,54,16.10
2020,06,07,09,55,19.30
2020,06,07,09,56,14.50
2020,06,07,09,57,11.30
2020,06,07,09,58,9.60
2020,06,07,09,59,9.60
2020,06,07,10,00,4.80
2020,06,07,10,01,4.80
2020,06,07,10,02,14.50
2020,06,07,10,03,16.10
2020,06,07,10,04,11.30
2020,06,07,10,05,8.10
2020,06,07,10,06,3.20
2020,06,07,10,07,6.40
2020,06,07,10,08,3.20
2020,06,07,10,09,11.30
2020,06,07,10,10,11.30
2020,06,07,10,11,11.30
2020,06,07,10,12,9.60
2020,06,07,10,13,17.70
2020,06,07,10,14,17.70
2020,06,07,10,15,8.10
2020,06,07,10,16,11.30
2020,06,07,10,17,11.30
2020,06,07,10,18,16.10
2020,06,07,10,19,19.30
2020,06,07,10,20,8.10
2020,06,07,10,21,11.30
2020,06,07,10,22,8.10
2020,06,07,10,23,6.40
2020,06,07,10,24,6.40
2020,06,07,10,25,11.30
2020,06,07,10,26,16.10
2020,06,07,10,27,14.50
2020,06,07,10,28,11.30
2020,06,07,10,29,16.10
2020,06,07,10,30,8.10
2020,06,07,10,31,12.90
2020,06,07,10,32,11.30
2020,06,07,10,33,9.60
2020,06,07,10,34,16.10
2020,06,07,10,35,6.40
2020,06,07,10,36,6.40
2020,06,07,10,37,8.10
2020,06,07,10,38,14.50
2020,06,07,10,39,14.50
2020,06,07,10,40,14.50
2020,06,07,10,41,17.70
2020,06,07,10,42,14.50
2020,06,07,10,43,16.10
2020,06,07,10,44,16.10
2020,06,07,10,45,17.70
2020,06,07,10,46,19.30
2020,06,07,10,47,20.90
2020,06,07,10,48,14.50
2020,06,07,10,49,9.60
2020,06,07,10,50,22.50
2020,06,07,10,51,24.20
2020,06,07,10,52,12.90
2020,06,07,10,53,14.50
2020,06,07,10,54,17.70
2020,06,07,10,55,14.50
2020,06,07,10,56,22.50
2020,06,07,10,57,25.70
2020,06,07,10,58,17.70
2020,06,07,10,59,20.90
2020,06,07,11,00,20.90
2020,06,07,11,01,11.30
2020,06,07,11,02,14.50
2020,06,07,11,03,8.10
2020,06,07,11,04,9.60
2020,06,07,11,05,9.60
2020,06,07,11,06,11.30
2020,06,07,11,07,35.40
2020,06,07,11,08,27.40
2020,06,07,11,09,20.90
2020,06,07,11,10,11.30
2020,06,07,11,11,24.20
2020,06,07,11,12,22.50
2020,06,07,11,13,19.30
2020,06,07,11,14,22.50
2020,06,07,11,15,20.90
2020,06,07,11,16,16.10
2020,06,07,11,17,14.50
2020,06,07,11,18,16.10
2020,06,07,11,19,19.30
2020,06,07,11,20,11.30
2020,06,07,11,21,27.40
2020,06,07,11,22,27.40
2020,06,07,11,23,29.00
2020,06,07,11,24,17.70
2020,06,07,11,25,16.10
2020,06,07,11,26,22.50
2020,06,07,11,27,16.10
2020,06,07,11,28,25.70
2020,06,07,11,29,24.20
2020,06,07,11,30,22.50
2020,06,07,11,31,20.90
2020,06,07,11,32,27.40
2020,06,07,11,33,22.50
2020,06,07,11,34,37.00
2020,06,07,11,35,22.50
2020,06,07,11,36,17.70
2020,06,07,11,37,19.30
2020,06,07,11,38,19.30
2020,06,07,11,39,19.30
2020,06,07,11,40,22.50
2020,06,07,11,41,29.00
2020,06,07,11,42,17.70
2020,06,07,11,43,24.20
2020,06,07,11,44,19.30
2020,06,07,11,45,25.70
2020,06,07,11,46,27.40
2020,06,07,11,47,30.60
2020,06,07,11,48,22.50
2020,06,07,11,49,29.00
2020,06,07,11,50,29.00
2020,06,07,11,51,29.00
2020,06,07,11,52,30.60
2020,06,07,11,53,22.50
2020,06,07,11,54,24.20
2020,06,07,11,55,20.90
2020,06,07,11,56,25.70
2020,06,07,11,57,27.40
2020,06,07,11,58,37.00
2020,06,07,11,59,25.70
2020,06,07,12,00,29.00
2020,06,07,12,01,9.60
2020,06,07,12,02,35.40
2020,06,07,12,03,33.80
2020,06,07,12,04,29.00
2020,06,07,12,05,29.00
2020,06,07,12,06,22.50
2020,06,07,12,07,30.60
2020,06,07,12,08,19.30
2020,06,07,12,09,20.90
2020,06,07,12,10,27.40
2020,06,07,12,11,24.20
2020,06,07,12,12,22.50
2020,06,07,12,13,11.30
2020,06,07,12,14,14.50
2020,06,07,12,15,14.50
2020,06,07,12,16,14.50
2020,06,07,12,17,27.40
2020,06,07,12,18,27.40
2020,06,07,12,19,25.70
2020,06,07,12,20,24.20
2020,06,07,12,21,38.60
2020,06,07,12,22,17.70
2020,06,07,12,23,27.40
2020,06,07,12,24,20.90
2020,06,07,12,25,25.70
2020,06,07,12,26,19.30
2020,06,07,12,27,17.70
2020,06,07,12,28,22.50
2020,06,07,12,29,29.00
2020,06,07,12,30,29.00
2020,06,07,12,31,30.60
2020,06,07,12,32,29.00
2020,06,07,12,33,27.40
2020,06,07,12,34,29.00
2020,06,07,12,35,22.50
2020,06,07,12,36,20.90
2020,06,07,12,37,37.00
2020,06,07,12,38,33.80
2020,06,07,12,39,27.40
2020,06,07,12,40,29.00
2020,06,07,12,41,27.40
2020,06,07,12,42,22.50
2020,06,07,12,43,20.90
2020,06,07,12,44,14.50
2020,06,07,12,45,19.30
2020,06,07,12,46,29.00
2020,06,07,12,47,17.70
2020,06,07,12,48,27.40
2020,06,07,12,49,22.50
2020,06,07,12,50,27.40
2020,06,07,12,51,17.70
2020,06,07,12,52,22.50
2020,06,07,12,53,20.90
2020,06,07,12,54,16.10
2020,06,07,12,55,27.40
2020,06,07,12,56,22.50
2020,06,07,12,57,20.90
2020,06,07,12,58,19.30
2020,06,07,12,59,19.30
2020,06,07,13,00,17.70
2020,06,07,13,01,14.50
2020,06,07,13,02,19.30
2020,06,07,13,03,30.60
2020,06,07,13,04,17.70
2020,06,07,13,05,22.50
2020,06,07,13,06,16.10
2020,06,07,13,07,17.70
2020,06,07,13,08,30.60
2020,06,07,13,09,29.00
2020,06,07,13,10,27.40
2020,06,07,13,11,24.20
2020,06,07,13,12,38.60
2020,06,07,13,13,27.40
2020,06,07,13,14,22.50
2020,06,07,13,15,33.80
2020,06,07,13,16,24.20
2020,06,07,13,17,22.50
2020,06,07,13,18,22.50
2020,06,07,13,19,16.10
2020,06,07,13,20,29.00
2020,06,07,13,21,25.70
2020,06,07,13,22,27.40
2020,06,07,13,23,14.50
2020,06,07,13,24,24.20
2020,06,07,13,25,35.40
2020,06,07,13,26,30.60
2020,06,07,13,27,20.90
2020,06,07,13,28,27.40
2020,06,07,13,29,20.90
2020,06,07,13,30,35.40
2020,06,07,13,31,33.80
2020,06,07,13,32,27.40
2020,06,07,13,33,29.00
2020,06,07,13,34,24.20
2020,06,07,13,35,24.20
2020,06,07,13,36,16.10
2020,06,07,13,37,9.60
2020,06,07,13,38,24.20
2020,06,07,13,39,16.10
2020,06,07,13,40,25.70
2020,06,07,13,41,25.70
2020,06,07,13,42,11.30
2020,06,07,13,43,27.40
2020,06,07,13,44,20.90
2020,06,07,13,45,16.10
2020,06,07,13,46,20.90
2020,06,07,13,47,32.20
2020,06,07,13,48,20.90
2020,06,07,13,49,32.20
2020,06,07,13,50,43.50
2020,06,07,13,51,27.40
2020,06,07,13,52,24.20
2020,06,07,13,53,37.00
2020,06,07,13,54,30.60
2020,06,07,13,55,27.40
2020,06,07,13,56,37.00
2020,06,07,13,57,38.60
2020,06,07,13,58,29.00
2020,06,07,13,59,32.20
2020,06,07,14,00,37.00
2020,06,07,14,01,24.20
2020,06,07,14,02,30.60
2020,06,07,14,03,27.40
2020,06,07,14,04,27.40
2020,06,07,14,05,25.70
2020,06,07,14,06,22.50
2020,06,07,14,07,22.50
2020,06,07,14,08,30.60
2020,06,07,14,09,27.40
2020,06,07,14,10,22.50
2020,06,07,14,11,19.30
2020,06,07,14,12,19.30
2020,06,07,14,13,17.70
2020,06,07,14,14,30.60
2020,06,07,14,15,27.40
2020,06,07,14,16,24.20
2020,06,07,14,17,22.50
2020,06,07,14,18,8.10
2020,06,07,14,19,12.90
2020,06,07,14,20,33.80
2020,06,07,14,21,24.20
2020,06,07,14,22,14.50
2020,06,07,14,23,35.40
2020,06,07,14,24,32.20
2020,06,07,14,25,37.00
2020,06,07,14,26,37.00
2020,06,07,14,27,33.80
2020,06,07,14,28,43.50
2020,06,07,14,29,38.60
2020,06,07,14,30,33.80
2020,06,07,14,31,22.50
2020,06,07,14,32,33.80
2020,06,07,14,33,30.60
2020,06,07,14,34,25.70
2020,06,07,14,35,41.80
2020,06,07,14,36,29.00
2020,06,07,14,37,30.60
2020,06,07,14,38,29.00
2020,06,07,14,39,25.70
2020,06,07,14,40,22.50
2020,06,07,14,41,29.00
2020,06,07,14,42,32.20
2020,06,07,14,43,29.00
2020,06,07,14,44,37.00
2020,06,07,14,45,32.20
2020,06,07,14,46,35.40
2020,06,07,14,47,27.40
2020,06,07,14,48,40.20
2020,06,07,14,49,30.60
2020,06,07,14,50,40.20
2020,06,07,14,51,37.00
2020,06,07,14,52,30.60
2020,06,07,14,53,40.20
2020,06,07,14,54,35.40
2020,06,07,14,55,25.70
2020,06,07,14,56,29.00
2020,06,07,14,57,22.50
2020,06,07,14,58,20.90
2020,06,07,14,59,25.70
2020,06,07,15,00,35.40
2020,06,07,15,01,33.80
2020,06,07,15,02,29.00
2020,06,07,15,03,29.00
2020,06,07,15,04,35.40
2020,06,07,15,05,27.40
2020,06,07,15,06,37.00
2020,06,07,15,07,33.80
2020,06,07,15,08,20.90
2020,06,07,15,09,40.20
2020,06,07,15,10,29.00
2020,06,07,15,11,27.40
2020,06,07,15,12,19.30
2020,06,07,15,13,35.40
2020,06,07,15,14,37.00
2020,06,07,15,15,29.00
2020,06,07,15,16,27.40
2020,06,07,15,17,29.00
2020,06,07,15,18,38.60
2020,06,07,15,19,33.80
2020,06,07,15,20,40.20
2020,06,07,15,21,30.60
2020,06,07,15,22,32.20
2020,06,07,15,23,35.40
2020,06,07,15,24,35.40
2020,06,07,15,25,19.30
2020,06,07,15,26,14.50
2020,06,07,15,27,24.20
2020,06,07,15,28,6.40
2020,06,07,15,29,17.70
2020,06,07,15,30,14.50
2020,06,07,15,31,20.90
2020,06,07,15,32,30.60
2020,06,07,15,33,20.90
2020,06,07,15,34,19.30
2020,06,07,15,35,27.40
2020,06,07,15,36,24.20
2020,06,07,15,37,19.30
2020,06,07,15,38,25.70
2020,06,07,15,39,6.40
2020,06,07,15,40,30.60
2020,06,07,15,41,32.20
2020,06,07,15,42,20.90
2020,06,07,15,43,30.60
2020,06,07,15,44,30.60
2020,06,07,15,45,27.40
2020,06,07,15,46,33.80
2020,06,07,15,47,40.20
2020,06,07,15,48,24.20
2020,06,07,15,49,25.70
2020,06,07,15,50,24.20
2020,06,07,15,51,38.60
2020,06,07,15,52,40.20
2020,06,07,15,53,24.20
2020,06,07,15,54,32.20
2020,06,07,15,55,25.70
2020,06,07,15,56,38.60
2020,06,07,15,57,33.80
2020,06,07,15,58,30.60
2020,06,07,15,59,27.40
2020,06,07,16,00,22.50
2020,06,07,16,01,40.20
2020,06,07,16,02,14.50
2020,06,07,16,03,40.20
2020,06,07,16,04,32.20
2020,06,07,16,05,43.50
2020,06,07,16,06,48.30
2020,06,07,16,07,29.00
2020,06,07,16,08,33.80
2020,06,07,16,09,19.30
2020,06,07,16,10,35.40
2020,06,07,16,11,35.40
2020,06,07,16,12,27.40
2020,06,07,16,13,32.20
2020,06,07,16,14,32.20
2020,06,07,16,15,29.00
2020,06,07,16,16,33.80
2020,06,07,16,17,35.40
2020,06,07,16,18,38.60
2020,06,07,16,19,35.40
2020,06,07,16,20,35.40
2020,06,07,16,21,27.40
2020,06,07,16,22,20.90
2020,06,07,16,23,29.00
2020,06,07,16,24,32.20
2020,06,07,16,25,25.70
2020,06,07,16,26,22.50
2020,06,07,16,27,14.50
2020,06,07,16,28,32.20
2020,06,07,16,29,33.80
2020,06,07,16,30,45.10
2020,06,07,16,31,32.20
2020,06,07,16,32,32.20
2020,06,07,16,33,49.90
2020,06,07,16,34,37.00
2020,06,07,16,35,37.00
2020,06,07,16,36,25.70
2020,06,07,16,37,32.20
2020,06,07,16,38,38.60
2020,06,07,16,39,35.40
2020,06,07,16,40,24.20
2020,06,07,16,41,24.20
2020,06,07,16,42,20.90
2020,06,07,16,43,24.20
2020,06,07,16,44,20.90
2020,06,07,16,45,29.00
2020,06,07,16,46,30.60
2020,06,07,16,47,27.40
2020,06,07,16,48,22.50
2020,06,07,16,49,35.40
2020,06,07,16,50,38.60
2020,06,07,16,51,37.00
2020,06,07,16,52,40.20
2020,06,07,16,53,33.80
2020,06,07,16,54,53.10
2020,06,07,16,55,40.20
2020,06,07,16,56,27.40
2020,06,07,16,57,32.20
2020,06,07,16,58,41.80
2020,06,07,16,59,27.40
2020,06,07,17,00,32.20
2020,06,07,17,01,27.40
2020,06,07,17,02,24.20
2020,06,07,17,03,33.80
2020,06,07,17,04,29.00
2020,06,07,17,05,25.70
2020,06,07,17,06,43.50
2020,06,07,17,07,43.50
2020,06,07,17,08,30.60
2020,06,07,17,09,29.00
2020,06,07,17,10,38.60
2020,06,07,17,11,27.40
2020,06,07,17,12,20.90
2020,06,07,17,13,29.00
2020,06,07,17,14,33.80
2020,06,07,17,15,25.70
2020,06,07,17,16,12.90
2020,06,07,17,17,9.60
2020,06,07,17,18,20.90
2020,06,07,17,19,22.50
2020,06,07,17,20,19.30
2020,06,07,17,21,29.00
2020,06,07,17,22,29.00
2020,06,07,17,23,19.30
2020,06,07,17,24,33.80
2020,06,07,17,25,17.70
2020,06,07,17,26,33.80
2020,06,07,17,27,25.70
2020,06,07,17,28,29.00
2020,06,07,17,29,16.10
2020,06,07,17,30,19.30
2020,06,07,17,31,16.10
2020,06,07,17,32,19.30
2020,06,07,17,33,35.40
2020,06,07,17,34,30.60
2020,06,07,17,35,24.20
2020,06,07,17,36,14.50
2020,06,07,17,37,20.90
2020,06,07,17,38,16.10
2020,06,07,17,39,14.50
2020,06,07,17,40,32.20
2020,06,07,17,41,32.20
2020,06,07,17,42,22.50
2020,06,07,17,43,22.50
2020,06,07,17,44,20.90
2020,06,07,17,45,11.30
2020,06,07,17,46,17.70
2020,06,07,17,47,38.60
2020,06,07,17,48,9.60
2020,06,07,17,49,22.50
2020,06,07,17,50,37.00
2020,06,07,17,51,27.40
2020,06,07,17,52,32.20
2020,06,07,17,53,24.20
2020,06,07,17,54,27.40
2020,06,07,17,55,45.10
2020,06,07,17,56,32.20
2020,06,07,17,57,27.40
2020,06,07,17,58,29.00
2020,06,07,17,59,20.90
2020,06,07,18,00,48.30
2020,06,07,18,01,22.50
2020,06,07,18,02,24.20
2020,06,07,18,03,27.40
2020,06,07,18,04,22.50
2020,06,07,18,05,11.30
2020,06,07,18,06,33.80
2020,06,07,18,07,25.70
2020,06,07,18,08,33.80
2020,06,07,18,09,30.60
2020,06,07,18,10,27.40
2020,06,07,18,11,29.00
2020,06,07,18,12,27.40
2020,06,07,18,13,17.70
2020,06,07,18,14,27.40
2020,06,07,18,15,24.20
2020,06,07,18,16,30.60
2020,06,07,18,17,27.40
2020,06,07,18,18,32.20
2020,06,07,18,19,40.20
2020,06,07,18,20,38.60
2020,06,07,18,21,24.20
2020,06,07,18,22,32.20
2020,06,07,18,23,29.00
2020,06,07,18,24,27.40
2020,06,07,18,25,22.50
2020,06,07,18,26,14.50
2020,06,07,18,27,17.70
2020,06,07,18,28,29.00
2020,06,07,18,29,33.80
2020,06,07,18,30,24.20
2020,06,07,18,31,40.20
2020,06,07,18,32,40.20
2020,06,07,18,33,16.10
2020,06,07,18,34,20.90
2020,06,07,18,35,22.50
2020,06,07,18,36,33.80
2020,06,07,18,37,25.70
2020,06,07,18,38,20.90
2020,06,07,18,39,37.00